Regional Weather Roundup
Issued by NWS Newport/Morehead, NC

Current Version | Previous Version | Text Only | Print | Product List | Glossary On
Versions: 1 2 3 4 5 6 7 8 9 10 11 12 13 14 15 16 17 18 19 20 21 22 23 24 25 26 27 28 29 30 31 32 33 34 35 36 37 38 39 40 41 42 43 44 45 46 47 48 49 50
000 ASUS42 KMHX 301213 RWRMHX WEATHER ROUNDUP FOR EASTERN NORTH CAROLINA NATIONAL WEATHER SERVICE NEWPORT/MOREHEAD CITY NC 800 AM EDT FRI SEP 30 2016 NOTE: "FAIR" INDICATES FEW OR NO CLOUDS BELOW 12,000 FEET WITH NO SIGNIFICANT WEATHER AND/OR OBSTRUCTIONS TO VISIBILITY NCZ015>017-031-032-045>047-102-103-301300- NORTH COAST CITY SKY/WX TMP DP RH WIND PRES REMARKS EDENTON FOG 73 73 100 NE6 30.05S VSB 1/4 ELIZABETH CITY CLOUDY 73 72 96 NE6 30.06R KITTY HAWK N/A 73 73 100 CALM 30.04S FOG MANTEO SUNNY 70 70 100 CALM 30.05S $$ NCZ045>047-081-094-103-104-301300- CENTRAL COAST CITY SKY/WX TMP DP RH WIND PRES REMARKS FRISCO SUNNY 76 74 93 E5 30.04S $$ NCZ095-097-098-100-101-301300- SOUTHERN COAST CITY SKY/WX TMP DP RH WIND PRES REMARKS BEAUFORT LGT RAIN 77 74 90 CALM 30.03R CEDAR ISLAND NOT AVBL JACKSONVILLE PTSUNNY 76 73 91 E5 30.01R PINEY ISLAND PTSUNNY N/A N/A N/A S3 30.03R WILMINGTON TSTM 71 70 96 W22 30.01R VSB 1/4 $$ NCZ011>013-027>030-043-044-078>080-089-090>093-098-301300- COASTAL PLAIN CITY SKY/WX TMP DP RH WIND PRES REMARKS AHOSKIE FOG 69 68 98 N5 30.05S VSB 1 CLINTON CLOUDY 71 71 100 CALM 30.00S FOG ELIZABETHTOWN PTCLDY 71 71 100 CALM 29.98R FOG GOLDSBORO CLOUDY 72 72 100 E8 29.99S FOG GREENVILLE HVY RAIN 72 72 100 E3 30.05R VSB 1/4 HAVELOCK PTSUNNY 72 70 93 SE5 30.04R KENANSVILLE CLOUDY 70 70 100 CALM 30.01R FOG KINSTON FOG 72 72 100 NE3 30.03R VSB 1/2 NEW BERN MOSUNNY 71 70 96 CALM 30.03S RICHLANDS MOSUNNY 70 70 100 E5 30.02R ROCKY MOUNT FOG 72 72 100 NE3 30.03R VSB 1/4 WASHINGTON FOG 70 70 99 E3 30.03S VSB 1 WHITEVILLE NOT AVBL $$ AMZ130-135-150-152-154-156-158-170-250-252-270-ANZ085-086-088-633-658-670-301300- MARINE OBSERVATIONS STATION/POSITION TIME TEMP WIND PRES WAVE SWELL AIR SEA DIR/SP/G HT/PER HT/PER (UTC) (F) (DEG/KT/KT) (MB) (FT/S) (FT/S) CHESAPEAKE LIGHT NOT AVBL 64 E VA BEACH 1150 74 74 320/ 2/ 4 1017.5 8/10 8/10 DUCK 1148 75 76 30/ 5/ 5 1017.2 2 E DUCK 1111 76 N/A 6/10 3/11 OREGON INLET 1148 76 78 50/ 3/ 4 1017.4 13E OREGON INLT 1130 76 N/A 6/11 7/11 HATTERAS CG 1148 78 79 90/ 3/ 5 1016.9 DIAMOND BUOY 1150 80 77 190/ 2/ 4 1017.1 4/10 3/10 CAPE LOOKOUT 1200 79 160/ 10/ 12 1016.4 BEAUFORT LAB 1148 77 77 130/ 4/ 5 1016.0 30 SE NEW RVR IN 1108 82 82 200/ 12/ 16 1015.8 30 SE NEW RVR IN 1125 82 N/A 4/ 5 2/11 27 SE WRIGHTSVLE 1108 81 81 180/ 10/ 16 1015.7 5 SE WRIGHTSVLE NOT AVBL 225 S CAPE HAT 1150 81 83 190/ 10/ 12 1018.3 4/ 6 3/ 6 41 SE CHARLESTON 1150 81 82 200/ 12/ 16 1014.4 3/ 5 2/10 $$

USA.gov is the U.S. government's official web portal to all federal, state and local government web resources and services.